GW5874 Weather Reports


Display with metric or nautical units.
time (UTC)temp
F
wind
direction
speed
MPH
gust
MPH
rain 1hr
in
rain 24hr
in
rain mn
in
humidity
%
barometer
mb
20260507161414 63 201 1.0 1.0 0.00 0.00 0.00 48 1018.7
20260507160911 64 292 2.0 4.0 0.00 0.00 0.00 46 1018.8
20260507160408 63 295 2.0 3.0 0.00 0.00 0.00 46 1018.7
20260507155904 62 289 4.0 4.0 0.00 0.00 0.00 43 1019.0
20260507155359 63 224 1.0 1.0 0.00 0.00 0.00 44 1018.9
20260507154857 61 265 1.0 3.0 0.00 0.00 0.00 49 1019.0
20260507154354 62 243 5.0 5.0 0.00 0.00 0.00 44 1019.0
20260507153851 61 194 4.0 4.0 0.00 0.00 0.00 50 1019.0
20260507153347 61 182 2.0 3.0 0.00 0.00 0.00 50 1019.2
20260507152844 61 273 2.0 3.0 0.00 0.00 0.00 46 1019.3
20260507152340 60 155 6.0 8.0 0.00 0.00 0.00 43 1019.4
20260507151836 61 202 4.0 4.0 0.00 0.00 0.00 41 1019.2
20260507151332 62 248 2.0 3.0 0.00 0.00 0.00 48 1019.3
20260507150830 61 174 1.0 1.0 0.00 0.00 0.00 48 1019.3
20260507150326 60 183 3.0 4.0 0.00 0.00 0.00 53 1019.2
20260507145822 60 169 2.0 4.0 0.00 0.00 0.00 52 1019.2
20260507145319 59 179 4.0 5.0 0.00 0.00 0.00 50 1019.4
20260507144816 58 202 3.0 4.0 0.00 0.00 0.00 50 1019.4
20260507144313 58 220 2.0 4.0 0.00 0.00 0.00 53 1019.5
20260507143810 57 211 4.0 5.0 0.00 0.00 0.00 55 1019.2
20260507143308 57 113 2.0 3.0 0.00 0.00 0.00 56 1019.2
20260507142803 56 205 3.0 4.0 0.00 0.00 0.00 55 1019.2
20260507142300 56 139 2.0 3.0 0.00 0.00 0.00 55 1019.0
20260507141756 57 176 2.0 3.0 0.00 0.00 0.00 62 1019.5
20260507141254 56 149 2.0 3.0 0.00 0.00 0.00 58 1019.0
20260507140749 56 240 5.0 5.0 0.00 0.00 0.00 61 1019.4
20260507140247 54 164 1.0 1.0 0.00 0.00 0.00 68 1019.5
20260507135744 54 193 3.0 4.0 0.00 0.00 0.00 65 1019.5
20260507135241 54 216 4.0 4.0 0.00 0.00 0.00 66 1019.3
20260507134737 54 222 4.0 4.0 0.00 0.00 0.00 67 1019.4
20260507134234 54 173 2.0 3.0 0.00 0.00 0.00 68 1019.5
20260507133730 53 257 0.0 1.0 0.00 0.00 0.00 75 1019.5
20260507133227 51 167 0.0 1.0 0.00 0.00 0.00 86 1019.2
20260507132724 50 165 0.0 1.0 0.00 0.00 0.00 97 1019.4
20260507132221 48 350 1.0 1.0 0.00 0.00 0.00 99 1019.3
20260507131718 48 355 1.0 1.0 0.00 0.00 0.00 99 1019.4
20260507131215 47 293 0.0 0.0 0.00 0.00 0.00 99 1019.4
20260507130712 46 337 1.0 1.0 0.00 0.00 0.00 99 1019.4
20260507130210 46 204 0.0 0.0 0.00 0.00 0.00 99 1019.3
20260507125708 45 204 0.0 0.0 0.00 0.00 0.00 99 1019.4
20260507125205 43 322 0.0 1.0 0.00 0.00 0.00 99 1019.4
20260507124701 43 323 0.0 0.0 0.00 0.00 0.00 99 1019.4
20260507124159 42 325 1.0 1.0 0.00 0.00 0.00 99 1019.3
20260507123657 44 273 0.0 0.0 0.00 0.00 0.00 99 1019.0
20260507123154 43 273 0.0 0.0 0.00 0.00 0.00 99 1019.2
20260507122649 41 273 0.0 0.0 0.00 0.00 0.00 99 1019.2
20260507122145 39 273 0.0 0.0 0.00 0.00 0.00 99 1019.2
20260507121641 39 297 0.0 0.0 0.00 0.00 0.00 99 1019.0
20260507121137 39 298 0.0 0.0 0.00 0.00 0.00 99 1019.2
20260507120634 38 241 0.0 0.0 0.00 0.00 0.00 99 1018.8
20260507120130 38 241 0.0 0.0 0.00 0.00 0.00 99 1018.9
20260507115627 38 241 0.0 0.0 0.00 0.00 0.00 99 1018.7
20260507115122 38 241 0.0 0.0 0.00 0.00 0.00 99 1018.8
20260507114618 38 240 0.0 0.0 0.00 0.00 0.00 99 1018.7
20260507114116 38 241 0.0 0.0 0.00 0.00 0.00 99 1018.8
20260507113613 38 279 0.0 0.0 0.00 0.00 0.00 99 1018.8
20260507113110 39 279 0.0 0.0 0.00 0.00 0.00 99 1018.9
20260507112608 38 279 0.0 0.0 0.00 0.00 0.00 99 1018.8
20260507112104 38 275 0.0 0.0 0.00 0.00 0.00 99 1019.0
20260507111602 38 275 0.0 0.0 0.00 0.00 0.00 99 1019.0
20260507111058 39 275 0.0 0.0 0.00 0.00 0.00 99 1018.8
20260507110554 39 275 0.0 0.0 0.00 0.00 0.00 99 1018.8
20260507110051 39 275 0.0 0.0 0.00 0.00 0.00 99 1018.6
20260507105548 39 275 0.0 0.0 0.00 0.00 0.00 99 1018.5
20260507105044 39 276 0.0 0.0 0.00 0.00 0.00 99 1018.6
20260507104542 39 276 0.0 0.0 0.00 0.00 0.00 99 1018.4
20260507104038 39 276 0.0 0.0 0.00 0.00 0.00 99 1018.3
20260507103534 39 277 0.0 1.0 0.00 0.00 0.00 99 1018.4
20260507103031 39 275 0.0 0.0 0.00 0.00 0.00 99 1018.1
20260507102527 40 275 0.0 0.0 0.00 0.00 0.00 99 1018.2
20260507102024 40 276 0.0 0.0 0.00 0.00 0.00 99 1018.3
20260507101519 40 277 0.0 0.0 0.00 0.00 0.00 99 1018.3
20260507101016 40 278 0.0 0.0 0.00 0.00 0.00 99 1018.3
20260507100513 39 276 0.0 1.0 0.00 0.00 0.00 99 1018.4
20260507100011 39 264 0.0 0.0 0.00 0.00 0.00 99 1018.3
20260507095509 39 275 0.0 0.0 0.00 0.00 0.00 99 1018.2
20260507095005 39 278 0.0 0.0 0.00 0.00 0.00 99 1018.4
20260507094501 39 285 0.0 0.0 0.00 0.00 0.00 98 1018.2
20260507093959 39 286 0.0 0.0 0.00 0.00 0.00 98 1018.3
20260507093456 38 254 0.0 0.0 0.00 0.00 0.00 99 1018.4
20260507092954 38 250 0.0 0.0 0.00 0.00 0.00 98 1018.6
20260507092450 38 255 0.0 0.0 0.00 0.00 0.00 98 1018.6
20260507091947 38 274 0.0 0.0 0.00 0.00 0.00 98 1018.8
20260507091444 38 279 0.0 0.0 0.00 0.00 0.00 98 1018.8
20260507090940 38 292 1.0 1.0 0.00 0.00 0.00 98 1018.6
20260507090436 38 244 0.0 0.0 0.00 0.00 0.00 98 1018.4
20260507085932 37 244 0.0 0.0 0.00 0.00 0.00 98 1018.6
20260507085430 37 245 0.0 0.0 0.00 0.00 0.00 98 1018.7
20260507084927 38 245 0.0 0.0 0.00 0.00 0.00 98 1018.8
20260507084424 38 244 0.0 0.0 0.00 0.00 0.00 98 1018.9
20260507083921 38 245 0.0 0.0 0.00 0.00 0.00 98 1018.7
20260507083417 38 243 0.0 0.0 0.00 0.00 0.00 98 1018.7
20260507082913 38 270 0.0 0.0 0.00 0.00 0.00 98 1018.6
20260507082409 38 275 0.0 0.0 0.00 0.00 0.00 98 1018.6
20260507081907 38 269 0.0 0.0 0.00 0.00 0.00 98 1018.6
20260507081402 38 278 0.0 0.0 0.00 0.00 0.00 98 1018.4
20260507080859 38 263 0.0 0.0 0.00 0.00 0.00 98 1018.6
20260507080355 39 258 0.0 0.0 0.00 0.00 0.00 98 1018.7
20260507075851 39 247 0.0 0.0 0.00 0.00 0.00 98 1018.7
20260507075347 39 277 0.0 0.0 0.00 0.00 0.00 98 1018.6
20260507074844 39 257 0.0 0.0 0.00 0.00 0.00 98 1018.2
20260507074341 39 257 0.0 0.0 0.00 0.00 0.00 98 1018.4
20260507073838 39 257 0.0 0.0 0.00 0.00 0.00 98 1018.2
20260507073335 39 256 0.0 0.0 0.00 0.00 0.00 98 1018.4
20260507072832 39 256 0.0 0.0 0.00 0.00 0.00 98 1018.5
20260507072329 39 280 0.0 0.0 0.00 0.00 0.00 98 1018.5
20260507071827 39 292 0.0 0.0 0.00 0.00 0.00 97 1018.6
20260507071324 39 292 0.0 0.0 0.00 0.00 0.00 97 1018.5
20260507070820 40 293 0.0 0.0 0.00 0.00 0.00 97 1018.5
20260507070318 40 297 1.0 1.0 0.00 0.00 0.00 97 1018.6
20260507065814 40 199 0.0 0.0 0.00 0.00 0.00 97 1018.5
20260507065310 40 199 0.0 0.0 0.00 0.00 0.00 97 1018.6
20260507064808 40 199 0.0 0.0 0.00 0.00 0.00 97 1018.7
20260507064307 40 199 0.0 0.0 0.00 0.00 0.00 97 1018.7
20260507063804 40 199 0.0 0.0 0.00 0.00 0.00 97 1018.9
20260507063301 41 199 0.0 0.0 0.00 0.00 0.00 97 1019.2
20260507062757 40 199 0.0 0.0 0.00 0.00 0.00 97 1018.7
20260507062255 40 199 0.0 0.0 0.00 0.00 0.00 97 1018.7
20260507061752 41 199 0.0 0.0 0.00 0.00 0.00 97 1018.7
20260507061250 41 199 0.0 0.0 0.00 0.00 0.00 97 1018.6
20260507060748 41 199 0.0 0.0 0.00 0.00 0.00 97 1018.7
20260507060244 41 199 0.0 0.0 0.00 0.00 0.00 97 1018.7
20260507055741 41 199 0.0 0.0 0.00 0.00 0.00 97 1018.8
20260507055236 41 199 0.0 0.0 0.00 0.00 0.00 97 1018.6
20260507054733 41 199 0.0 0.0 0.00 0.00 0.00 97 1018.5
20260507054230 41 199 0.0 0.0 0.00 0.00 0.00 97 1018.4
20260507053727 41 199 0.0 0.0 0.00 0.00 0.00 97 1018.5
20260507053225 41 199 0.0 0.0 0.00 0.00 0.00 96 1018.6
20260507052724 41 199 0.0 0.0 0.00 0.00 0.00 96 1018.6
20260507052219 42 199 0.0 0.0 0.00 0.00 0.00 96 1018.7
20260507051718 42 199 0.0 0.0 0.00 0.00 0.00 96 1018.9
20260507051214 42 199 0.0 0.0 0.00 0.00 0.00 96 1018.6
20260507050711 42 199 0.0 0.0 0.00 0.00 0.00 96 1018.7
20260507050208 42 199 0.0 0.0 0.00 0.00 0.00 96 1018.6
20260507045704 42 199 0.0 0.0 0.00 0.00 0.00 96 1018.5
20260507045200 42 199 0.0 0.0 0.00 0.00 0.00 96 1018.5
20260507044658 42 199 0.0 0.0 0.00 0.00 0.00 95 1018.8
20260507044154 43 199 0.0 0.0 0.00 0.00 0.00 95 1018.6
20260507043651 43 199 0.0 0.0 0.00 0.00 0.00 95 1018.5
20260507043148 43 199 0.0 0.0 0.00 0.00 0.00 95 1018.5
20260507042644 43 199 0.0 0.0 0.00 0.00 0.00 95 1018.5
20260507042139 43 199 0.0 0.0 0.00 0.00 0.00 95 1018.5
20260507041637 43 199 0.0 0.0 0.00 0.00 0.00 95 1018.4
20260507041133 43 199 0.0 0.0 0.00 0.00 0.00 95 1018.4
20260507040630 43 199 0.0 0.0 0.00 0.00 0.00 94 1018.3
20260507040126 43 199 0.0 0.0 0.00 0.00 0.00 94 1018.5
20260507035622 43 199 0.0 0.0 0.00 0.00 0.00 94 1018.3
20260507035118 44 199 0.0 0.0 0.00 0.00 0.00 94 1018.1
20260507034615 44 199 0.0 0.0 0.00 0.00 0.00 93 1018.4
20260507034113 44 199 0.0 0.0 0.00 0.00 0.00 93 1018.3
20260507033611 44 199 0.0 0.0 0.00 0.00 0.00 93 1018.4
20260507033108 44 199 0.0 0.0 0.00 0.00 0.00 92 1018.1
20260507032605 44 199 0.0 0.0 0.00 0.00 0.00 92 1018.1
20260507032101 44 199 0.0 0.0 0.00 0.00 0.00 92 1018.0
20260507031558 44 199 0.0 0.0 0.00 0.00 0.00 92 1018.1
20260507031055 45 199 0.0 0.0 0.00 0.00 0.00 91 1018.0
20260507030551 44 199 0.0 0.0 0.00 0.00 0.00 91 1017.9
20260507030049 45 199 0.0 0.0 0.00 0.00 0.00 90 1017.9
20260507025546 45 199 0.0 0.0 0.00 0.00 0.00 90 1017.9
20260507025043 45 199 0.0 0.0 0.00 0.00 0.00 90 1017.9
20260507024541 45 199 0.0 0.0 0.00 0.00 0.00 89 1017.8
20260507024038 46 199 0.0 0.0 0.00 0.00 0.00 87 1017.9
20260507023533 46 199 0.0 0.0 0.00 0.00 0.00 87 1017.6
20260507023031 46 199 0.0 0.0 0.00 0.00 0.00 86 1017.7
20260507022528 47 199 0.0 0.0 0.00 0.00 0.00 86 1017.7
20260507022028 47 199 0.0 0.0 0.00 0.00 0.00 86 1017.6
20260507021525 47 199 0.0 0.0 0.00 0.00 0.00 85 1017.4
20260507021021 47 199 0.0 0.0 0.00 0.00 0.00 84 1017.6
20260507020519 48 199 0.0 0.0 0.00 0.00 0.00 84 1017.5
20260507020015 48 199 0.0 0.0 0.00 0.00 0.00 82 1017.4
20260507015514 48 199 0.0 0.0 0.00 0.00 0.00 81 1017.3
20260507015011 48 199 0.0 0.0 0.00 0.00 0.00 80 1017.2
20260507014507 49 160 0.0 1.0 0.00 0.00 0.00 79 1017.2
20260507014003 49 148 0.0 0.0 0.00 0.00 0.00 79 1017.2
20260507013500 50 308 0.0 1.0 0.00 0.00 0.00 78 1017.2
20260507012957 51 296 0.0 0.0 0.00 0.00 0.00 76 1017.3
20260507012454 51 296 0.0 0.0 0.00 0.00 0.00 76 1017.1
20260507011951 52 296 0.0 0.0 0.00 0.00 0.00 73 1017.1
20260507011448 52 296 0.0 0.0 0.00 0.00 0.00 71 1017.0
20260507010943 53 296 0.0 0.0 0.00 0.00 0.00 68 1016.9
20260507010438 53 297 0.0 0.0 0.00 0.00 0.00 65 1016.9
20260507005935 54 289 0.0 0.0 0.00 0.00 0.00 58 1016.8
20260507005433 55 281 0.0 0.0 0.00 0.00 0.00 57 1016.9
20260507004930 55 243 0.0 0.0 0.00 0.00 0.00 56 1016.6
20260507004426 56 275 0.0 0.0 0.00 0.00 0.00 51 1016.8
20260507003923 57 312 1.0 1.0 0.00 0.00 0.00 52 1016.7
20260507003418 57 355 0.0 1.0 0.00 0.00 0.00 50 1016.7
20260507002914 57 357 2.0 4.0 0.00 0.00 0.00 50 1016.7
20260507002410 57 247 2.0 3.0 0.00 0.00 0.00 49 1016.4
20260507001908 58 113 2.0 3.0 0.00 0.00 0.00 49 1016.7
20260507001404 58 24 2.0 5.0 0.00 0.00 0.00 51 1016.6
20260507000902 59 258 1.0 1.0 0.00 0.00 0.00 52 1016.6
20260507000357 59 40 1.0 1.0 0.00 0.00 0.00 48 1016.4
20260506235853 60 299 2.0 4.0 0.00 0.00 0.00 48 1016.5
20260506235350 60 204 0.0 1.0 0.00 0.00 0.00 49 1016.5
20260506234845 61 212 2.0 3.0 0.00 0.00 0.00 47 1016.4
20260506234344 62 283 2.0 3.0 0.00 0.00 0.00 46 1016.3
20260506233841 62 277 5.0 8.0 0.00 0.00 0.00 45 1016.1
20260506233337 61 320 4.0 5.0 0.00 0.00 0.00 46 1015.9
20260506232834 61 150 4.0 5.0 0.00 0.00 0.00 47 1016.1
20260506232330 61 174 3.0 5.0 0.00 0.00 0.00 48 1015.7
20260506231826 61 253 1.0 1.0 0.00 0.00 0.00 46 1015.7
20260506231324 62 185 4.0 7.0 0.00 0.00 0.00 48 1015.6
20260506230821 62 230 4.0 5.0 0.00 0.00 0.00 49 1015.6
20260506230318 61 239 6.0 10.0 0.00 0.00 0.00 46 1015.5
20260506225814 62 304 9.0 11.0 0.00 0.00 0.00 43 1015.4
20260506225312 62 288 2.0 4.0 0.00 0.00 0.00 46 1015.5
20260506224809 62 350 7.0 8.0 0.00 0.00 0.00 45 1015.4
20260506224306 62 322 2.0 3.0 0.00 0.00 0.00 46 1015.3
20260506223802 62 350 2.0 3.0 0.00 0.00 0.00 50 1015.4
20260506223257 62 9 5.0 7.0 0.00 0.00 0.00 45 1015.4
20260506222754 63 324 2.0 3.0 0.00 0.00 0.00 45 1015.1
20260506222250 63 248 3.0 4.0 0.00 0.00 0.00 50 1015.4
20260506221748 63 282 4.0 5.0 0.00 0.00 0.00 45 1015.2
20260506221246 62 276 2.0 4.0 0.00 0.00 0.00 49 1015.4
20260506220743 62 165 4.0 5.0 0.00 0.00 0.00 47 1015.3
20260506220238 63 102 2.0 7.0 0.00 0.00 0.00 46 1015.4
20260506215735 63 185 1.0 1.0 0.00 0.00 0.00 51 1015.5
20260506215230 63 267 2.0 3.0 0.00 0.00 0.00 47 1015.3
20260506214727 63 60 3.0 7.0 0.00 0.00 0.00 45 1015.5
20260506214224 62 67 2.0 3.0 0.00 0.00 0.00 46 1015.6
20260506213723 62 284 6.0 8.0 0.00 0.00 0.00 46 1015.6
20260506213220 62 351 3.0 5.0 0.00 0.00 0.00 44 1015.5
20260506212717 61 266 1.0 1.0 0.00 0.00 0.00 46 1015.5
20260506212212 63 81 4.0 5.0 0.00 0.00 0.00 46 1015.5
20260506211708 62 327 1.0 1.0 0.00 0.00 0.00 46 1015.3
20260506211204 63 269 3.0 5.0 0.00 0.00 0.00 47 1015.5
20260506210701 63 121 6.0 8.0 0.00 0.00 0.00 45 1015.7
20260506210158 63 356 4.0 5.0 0.00 0.00 0.00 45 1015.9
20260506205656 62 199 2.0 3.0 0.00 0.00 0.00 47 1015.8
20260506205155 61 167 2.0 3.0 0.00 0.00 0.00 50 1015.8
20260506204653 62 192 4.0 5.0 0.00 0.00 0.00 48 1015.7
20260506204150 62 281 3.0 4.0 0.00 0.00 0.00 48 1015.9
20260506203648 61 83 3.0 5.0 0.00 0.00 0.00 47 1016.2
20260506203145 61 149 2.0 4.0 0.00 0.00 0.00 50 1016.3
20260506202643 62 90 2.0 3.0 0.00 0.00 0.00 49 1016.3
20260506202139 62 138 5.0 7.0 0.00 0.00 0.00 46 1016.5
20260506201636 62 130 6.0 7.0 0.00 0.00 0.00 47 1016.5
20260506201132 60 293 2.0 3.0 0.00 0.00 0.00 57 1016.5
20260506200629 61 350 4.0 5.0 0.00 0.00 0.00 50 1016.6
20260506200126 60 217 6.0 7.0 0.00 0.00 0.00 52 1016.7
20260506195622 60 177 1.0 3.0 0.00 0.00 0.00 51 1016.9
20260506195119 61 80 4.0 7.0 0.00 0.00 0.00 51 1016.7
20260506194616 60 148 6.0 7.0 0.00 0.00 0.00 55 1016.8
20260506194113 60 209 0.0 1.0 0.00 0.00 0.00 54 1016.6
20260506193611 61 76 1.0 1.0 0.00 0.00 0.00 54 1016.8
20260506193108 61 341 3.0 5.0 0.00 0.00 0.00 52 1016.7
20260506192604 62 266 3.0 4.0 0.00 0.00 0.00 51 1016.8
20260506192100 61 287 5.0 7.0 0.00 0.00 0.00 51 1016.7
20260506191557 61 176 7.0 10.0 0.00 0.00 0.00 52 1017.0
20260506191053 61 179 6.0 10.0 0.00 0.00 0.00 50 1017.0
20260506190550 62 299 5.0 7.0 0.00 0.00 0.00 57 1016.8
20260506190047 61 246 2.0 3.0 0.00 0.00 0.00 54 1016.8
20260506185544 61 124 3.0 5.0 0.00 0.00 0.00 62 1016.9
20260506185041 60 74 1.0 1.0 0.00 0.00 0.00 55 1017.1
20260506184538 60 101 5.0 5.0 0.00 0.00 0.00 54 1017.0
20260506184036 59 178 2.0 3.0 0.00 0.00 0.00 54 1017.3
20260506183531 59 286 3.0 4.0 0.00 0.00 0.00 56 1017.1
20260506183028 59 249 3.0 4.0 0.00 0.00 0.00 54 1017.3
20260506182526 59 333 4.0 7.0 0.00 0.00 0.00 58 1017.5
20260506182023 60 308 3.0 4.0 0.00 0.00 0.00 56 1017.5
20260506181521 59 277 1.0 3.0 0.00 0.00 0.00 59 1018.0
20260506181017 59 2 1.0 1.0 0.00 0.00 0.00 58 1018.1
20260506180514 59 255 2.0 3.0 0.00 0.00 0.00 58 1018.0
20260506180010 59 59 0.0 1.0 0.00 0.00 0.00 58 1018.1
20260506175507 58 297 3.0 4.0 0.00 0.00 0.00 59 1018.2
20260506175003 58 299 3.0 4.0 0.00 0.00 0.00 57 1018.3
20260506174502 59 358 4.0 5.0 0.00 0.00 0.00 61 1018.3
20260506173957 58 287 1.0 3.0 0.00 0.00 0.00 57 1018.3
20260506173456 58 168 4.0 4.0 0.00 0.00 0.00 61 1018.2
20260506172952 58 128 5.0 7.0 0.00 0.00 0.00 56 1018.3
20260506172450 59 23 5.0 7.0 0.00 0.00 0.00 59 1018.3
20260506171945 59 166 2.0 3.0 0.00 0.00 0.00 56 1018.2
20260506171443 61 261 4.0 5.0 0.00 0.00 0.00 54 1018.2
20260506170941 60 257 3.0 4.0 0.00 0.00 0.00 55 1018.2
20260506170437 60 185 2.0 3.0 0.00 0.00 0.00 54 1018.3
20260506165936 60 61 2.0 3.0 0.00 0.00 0.00 57 1018.3
20260506165434 58 227 2.0 3.0 0.00 0.00 0.00 58 1018.4
20260506164930 57 86 6.0 7.0 0.00 0.00 0.00 59 1018.4
20260506164427 58 74 5.0 5.0 0.00 0.00 0.00 59 1018.5
20260506163920 58 202 3.0 4.0 0.00 0.00 0.00 57 1018.1
20260506163420 57 347 2.0 3.0 0.00 0.00 0.00 59 1018.1
20260506162915 57 342 4.0 5.0 0.00 0.00 0.00 61 1018.0
20260506162413 57 16 3.0 4.0 0.00 0.00 0.00 59 1018.0
20260506161910 56 97 5.0 5.0 0.00 0.00 0.00 62 1017.8